sat.trackr.live / text

‹ back to catalog

ONEWEB-0521

NORAD 54139 · 2022-138AC

PAYLOAD ACTIVE UNKNOWN

§ Identity

Operator
Country
UK
Launch date
2022-10-22
Launch site
SRILR
Launch vehicle
Mass (kg)
RCS (m²)

Purposes: comms

External: N2YO · Heavens-Above · Gunter

§ Orbital elements

Epoch: 2026-09-19T07:51:34.443936Z

Period
109.11 min
Inclination
87.9114°
Eccentricity
0.0002128
Mean motion
13.19725755 rev/d
Perigee alt
1,184.2 km
Apogee alt
1,187.4 km
Semi-major
7,563.9 km
B*
1.0008e-4
RAAN
286.2062°
Arg perigee
97.1305°
Mean anomaly
263.0070°
Rev number
18,918

§ Raw data

ONEWEB-05211 54139U 22138AC  26262.32748199  .00000053  00000+0  10008-3 0  99982 54139  87.9114 286.2062 0002128  97.1305 263.0070 13.19725755189188

JSON: /api/v1/satellites/54139 · /tle

For live sub-satellite position, see the globe view (requires WebGL).

§ Visibility from observer

Set your observer location to see the next 7 days of passes ≥ 10°. The values pass through the URL so the page stays shareable.

No JS? Fill the form by hand. The geolocation button needs JavaScript.